Meteopurmerend
purmerend
Purmerend - Baaienwijk



My webcam  My webcam


waarschuwing voor Onweer Meer informatie blitzortung!


Regen radar Meer informatie rain snow radar


Bezoek onze andere website:

CandyAppleRed WebdesignWebdesign Purmerend Candy Apple Red

MeteopurmerendBlog

Template documentation
and downloads



Onweer van: 26-07-2021 15:00 tot: 21:00 waarschuwing voor: Onweer niveau: Geel info button
Enkele onweersbuien, lokaal met hagel en veel neerslag in korte tijd.Kans op blikseminslag, hagel en veel neerslag in korte tijd.Verkeer en buitenactiviteiten kunnen hinder ondervinden.Mijd open water en open gebied, schuil niet onder bomen.Volg weerberichten en waarschuwingen.

15 daagse weersverwachting Dublin (IE)

  • Overzicht
  • Per uur
  • 15 dagen
  • Extra
  • Vergelijk
  • Kaarten
  • Dagkaart
  • Meer »
  • Info
  • Statistieken
  • Directe link
    Temp 6h Neerslag Wind  
 05:35     21:30    Daglengte: 15:55 Vandaag
19:00
20°
 
3
 05:36     21:28    Daglengte: 15:52 Morgen
01:00
17°
0.3 mm
4
07:00
16°
3.1 mm
2
13:00
18°
 
3
19:00
16°
3.4 mm
5
 05:38     21:26    Daglengte: 15:48 Woensdag 28 Jul
01:00
14°
0.4 mm
5
07:00
13°
 
3
13:00
17°
2.6 mm
5
19:00
16°
4.4 mm
6
 05:39     21:25    Daglengte: 15:46 Donderdag 29 Jul
01:00
13°
 
7
07:00
12°
 
7
13:00
20°
 
6
Locatie info
Region: Dublin
Latitude: 53.3481°N
Longitude: -6.2483°E
17 masl
Postcode: 1
Temp/Neerslag /Baro Onweer/Dauwpunt
    Temp Baro 1h Neerslag Dauwpunt Wind UV Bewolking  
 05:35     21:30    Daglengte: 15:55 Vandaag
16:00
21°
1008.6 hPa   13.7°
3
Windvlaag: 2.8 m/s
76%
17:00
20°
1008.3 hPa   12.8°
4
Windvlaag: 4.2 m/s
84%
18:00
20°
1008.3 hPa   12.2°
4
Windvlaag: 4.6 m/s
84%
19:00
20°
1007.8 hPa
13%
12.8°
3
Windvlaag: 5.1 m/s
83%
20:00
20°
1007.8 hPa
13%
14.3°
3
Windvlaag: 1.6 m/s
84%
21:00
20°
1008.0 hPa
13%
15.3°
4
Windvlaag: -0.1 m/s
83%
22:00
19°
1008.3 hPa
44%
15.5°
4
Windvlaag: 0.5 m/s
72%
23:00
18°
1008.2 hPa
45%
15.6°
4
Windvlaag: 1.2 m/s
74%
 05:36     21:28    Daglengte: 15:52 Morgen
00:00
18°
1008.2 hPa
47%
15.6°
4
Windvlaag: 0.8 m/s
72%
01:00
17°
1008.3 hPa 0.3 mm
49%
15.4°
4
Windvlaag: -0.1 m/s
74%
02:00
17°
1008.1 hPa 0.7 mm
49%
15.3°
3
Windvlaag: -0.9 m/s
66%
03:00
16°
1007.9 hPa 0.5 mm
49%
14.5°
3
Windvlaag: -3.5 m/s
83%
04:00
16°
1007.7 hPa 0.9 mm
49%
14.1°
2
Windvlaag: -2.7 m/s
71%
05:00
16°
1007.4 hPa 1.0 mm
49%
14.1°
2
Windvlaag: -1.1 m/s
65%
06:00
16°
1007.3 hPa
72%
14.1°
2
Windvlaag: -0.1 m/s
65%
07:00
16°
1007.6 hPa
30%
14.2°
2
Windvlaag: -0.5 m/s
77%
08:00
16°
1007.7 hPa
27%
14.3°
2
Windvlaag: -0.7 m/s
72%
09:00
16°
1007.9 hPa
33%
14.2°
3
Windvlaag: -2.5 m/s
70%
10:00
16°
1008.0 hPa
30%
14.2°
4
Windvlaag: -3.7 m/s
66%
11:00
17°
1007.9 hPa
30%
14.1°
4
Windvlaag: -3.1 m/s
66%
12:00
17°
1007.8 hPa
28%
14.2°
3
Windvlaag: -2.7 m/s
72%
13:00
18°
1007.5 hPa
25%
14.1°
3
Windvlaag: -2.7 m/s
82%
14:00
18°
1007.2 hPa
24%
14.4°
3
Windvlaag: -2.4 m/s
72%
15:00
18°
1007.0 hPa
76%
14.3°
4
Windvlaag: -1.9 m/s
59%
16:00
17°
1006.9 hPa 0.8 mm
82%
14.7°
4
Windvlaag: -0.7 m/s
65%
17:00
17°
1006.9 hPa 0.7 mm
82%
14.1°
5
Windvlaag: 0.3 m/s
80%
18:00
17°
1006.9 hPa 1.1 mm
82%
13.7°
6
Windvlaag: -0.8 m/s
43%
19:00
16°
1006.9 hPa 0.7 mm
81%
13.4°
5
Windvlaag: -1.2 m/s
20%
20:00
16°
1007.0 hPa 0.4 mm
72%
13.3°
5
Windvlaag: -0.5 m/s
45%
21:00
16°
1007.2 hPa
16%
12.6°
5
Windvlaag: 0.2 m/s
62%
22:00
15°
1007.4 hPa
17%
12.0°
5
Windvlaag: 0.4 m/s
19%
23:00
15°
1007.3 hPa
15%
11.3°
5
Windvlaag: 1.3 m/s
39%
 05:38     21:26    Daglengte: 15:48 Woensdag 28 Jul
00:00
15°
1007.2 hPa
18%
10.5°
5
Windvlaag: 1.1 m/s
33%
01:00
14°
1007.1 hPa
19%
10.2°
5
Windvlaag: 1 m/s
23%
02:00
14°
1006.5 hPa
15%
10.1°
4
Windvlaag: -0.7 m/s
21%
03:00
14°
1006.2 hPa
16%
9.8°
4
Windvlaag: -0.3 m/s
17%
04:00
13°
1006.0 hPa
15%
9.0°
4
Windvlaag: 0.4 m/s
30%
05:00
13°
1005.9 hPa
15%
9.1°
3
Windvlaag: 1.7 m/s
21%
06:00
13°
1005.7 hPa
14%
9.2°
3
Windvlaag: 2.1 m/s
26%
07:00
13°
1005.6 hPa
14%
9.2°
3
Windvlaag: 2.2 m/s
11%
08:00
14°
1005.4 hPa
14%
9.5°
4
Windvlaag: 2.5 m/s
44%
09:00
15°
1005.5 hPa
22%
9.7°
4
Windvlaag: 2.6 m/s
17%
10:00
16°
1003.8 hPa
41%
9.7°
4
Windvlaag: 2.3 m/s
49%
11:00
16°
1003.4 hPa 0.8 mm
95%
10.4°
5
Windvlaag: 2.2 m/s
70% warningclass
12:00
17°
1003.2 hPa 0.9 mm
96%
10.0°
5
Windvlaag: 2.5 m/s
60%
13:00
17°
1003.0 hPa 0.9 mm
100%
8.0°
5
Windvlaag: 1.9 m/s
58%
14:00
17°
1002.8 hPa 1.0 mm
96%
7.1°
5
Windvlaag: 1.5 m/s
66%
15:00
16°
1002.8 hPa 1.8 mm
100%
8.7°
6
Windvlaag: 0.7 m/s
66%
16:00
17°
1002.9 hPa 1.5 mm
97%
7.1°
6
Windvlaag: -0.8 m/s
66%
17:00
17°
1003.0 hPa
94%
8.4°
7
Windvlaag: -0.9 m/s
62%
18:00
16°
1003.0 hPa
45%
9.3°
6
Windvlaag: -0.8 m/s
56%
19:00
16°
1003.2 hPa
80%
9.3°
6
Windvlaag: -0.9 m/s
66%
20:00
15°
1003.4 hPa
27%
10.3°
6
Windvlaag: -0.1 m/s
38%
21:00
14°
1003.9 hPa
21%
12.0°
6
Windvlaag: 1.4 m/s
31%
22:00
14°
1004.2 hPa
21%
11.1°
6
Windvlaag: 2.4 m/s
17%
23:00
13°
1004.3 hPa
21%
11.5°
6
Windvlaag: 3.2 m/s
17%
 05:39     21:25    Daglengte: 15:46 Donderdag 29 Jul
00:00
13°
1004.6 hPa
21%
11.2°
6
Windvlaag: 2.6 m/s
14%
01:00
13°
1004.7 hPa
21%
10.2°
7
Windvlaag: 2.4 m/s
21%
02:00
13°
1004.7 hPa
21%
10.1°
7
Windvlaag: 2.8 m/s
39%
03:00
12°
1004.6 hPa
21%
10.2°
8
Windvlaag: 2.6 m/s
63%
04:00
12°
1004.8 hPa
21%
10.2°
8
Windvlaag: 2.4 m/s
44%
05:00
12°
1005.1 hPa
21%
10.2°
8
Windvlaag: 2.4 m/s
54%
06:00
12°
1005.6 hPa
21%
10.3°
7
Windvlaag: 2.1 m/s
69%
07:00
12°
1005.9 hPa
21%
10.2°
7
Windvlaag: 2.7 m/s
59%
08:00
13°
1006.5 hPa
21%
10.4°
5
Windvlaag: 14.1 m/s
20%
09:00
14°
1006.8 hPa
21%
11.3°
6
Windvlaag: 13.9 m/s
20%
10:00
16°
1006.8 hPa
21%
12.2°
6
Windvlaag: 13.8 m/s
20%
11:00
17°
1006.9 hPa
21%
11.8°
6
Windvlaag: 11.8 m/s
20%
12:00
19°
1006.9 hPa
21%
12.9°
6
Windvlaag: 10.5 m/s
20%
13:00
20°
1006.7 hPa
22%
11.2°
6
Windvlaag: 10.3 m/s
30%
Temp/Neerslag /Baro Onweer/Dauwpunt
    Temp Baro Neerslag Dauwpunt Wind Bewolking  
 05:35     21:30    Daglengte: 15:55 Vandaag
16:00
21°
1008.6 hPa   13.7°
3
76%
19:00
20°
1007.8 hPa   12.8°
3
83%
22:00
19°
1008.3 hPa   15.5°
4
72%
 05:36     21:28    Daglengte: 15:52 Morgen
01:00
17°
1008.3 hPa 0.3 mm 15.4°
4
74%
04:00
16°
1007.7 hPa 2.1 mm 14.1°
2
71%
07:00
16°
1007.6 hPa 1.0 mm 14.2°
2
77%
10:00
16°
1008.0 hPa   14.2°
4
66%
13:00
18°
1007.5 hPa   14.1°
3
82%
16:00
17°
1006.9 hPa 0.8 mm 14.7°
4
65%
19:00
16°
1006.9 hPa 2.6 mm 13.4°
5
20%
22:00
15°
1007.4 hPa 0.4 mm 12.0°
5
19%
 05:38     21:26    Daglengte: 15:48 Woensdag 28 Jul
01:00
14°
1007.1 hPa   10.2°
5
23%
04:00
13°
1006.0 hPa   9.0°
4
30%
07:00
13°
1005.6 hPa   9.2°
3
11%
10:00
16°
1003.8 hPa   9.7°
4
49%
13:00
17°
1003.0 hPa 2.6 mm 8.0°
5
58%
16:00
17°
1002.9 hPa 4.4 mm 7.1°
6
66%
19:00
16°
1003.2 hPa   9.3°
6
66%
22:00
14°
1004.2 hPa   11.1°
6
17%
 05:39     21:25    Daglengte: 15:46 Donderdag 29 Jul
01:00
13°
1004.7 hPa   10.2°
7
21%
04:00
12°
1004.8 hPa   10.2°
8
44%
07:00
12°
1005.9 hPa   10.2°
7
59%
10:00
16°
1006.8 hPa   12.2°
6
20%
13:00
20°
1006.7 hPa   11.2°
6
30%
16:00
13°
1009.0 hPa 14.7 mm 12.5°
5
1%
19:00
13°
1009.1 hPa 15.7 mm 11.8°
4
1%
22:00
13°
1009.4 hPa 16.0 mm 11.1°
2
1%
 05:41     21:23    Daglengte: 15:42 Vrijdag 30 Jul
01:00
12°
1009.4 hPa 16.0 mm 10.3°
2
1%
04:00
11°
1008.2 hPa 16.0 mm 9.5°
2
1%
07:00
12°
1007.8 hPa 16.0 mm 10.3°
2
1%
10:00
14°
1007.2 hPa 16.2 mm 11.1°
2
1%
13:00
15°
1006.4 hPa 16.8 mm 13.0°
4
1%
16:00
15°
1006.5 hPa 17.0 mm 12.5°
2
1%
19:00
17°
1006.5 hPa 17.0 mm 11.5°
2
1%
22:00
15°
1007.4 hPa 17.0 mm 10.8°
2
1%
 05:43     21:21    Daglengte: 15:38 Zaterdag 31 Jul
01:00
12°
1008.2 hPa 17.0 mm 11.1°
4
1%
04:00
11°
1008.3 hPa 17.0 mm 11.0°
4
0%
07:00
13°
1008.9 hPa 17.1 mm 11.8°
5
1%
10:00
14°
1009.5 hPa 17.1 mm 9.9°
5
1%
13:00
18°
1009.6 hPa 17.1 mm 8.7°
7
1%
16:00
17°
1010.3 hPa 17.1 mm 9.5°
6
1%
19:00
16°
1010.6 hPa 17.2 mm 10.0°
5
1%
22:00
12°
1012.0 hPa 17.2 mm 9.8°
3
1%
 05:44     21:19    Daglengte: 15:35 Zondag 01 Aug
01:00
11°
1012.7 hPa 17.2 mm 9.5°
4
1%
04:00
13°
1012.5 hPa 17.2 mm 7.1°
5
1%
07:00
13°
1013.0 hPa 17.2 mm 6.2°
5
1%
10:00
14°
1013.8 hPa 17.2 mm 6.4°
5
1%
13:00
16°
1014.5 hPa 17.2 mm 6.9°
5
1%
16:00
17°
1014.9 hPa 17.2 mm 8.1°
4
1%
19:00
17°
1014.9 hPa 17.2 mm 8.6°
2
1%
22:00
15°
1015.5 hPa 17.2 mm 9.7°
2
1%
 05:46     21:18    Daglengte: 15:32 Maandag 02 Aug
01:00
10°
1016.4 hPa 17.2 mm 8.6°
2
1%
04:00
Voelt als: 7.2°
1016.6 hPa 17.2 mm 7.5°
3
0%
07:00
10°
Voelt als: 8.3°
1016.7 hPa 17.2 mm 7.2°
3
1%
10:00
15°
1016.7 hPa 17.2 mm 9.7°
3
1%
13:00
19°
1015.7 hPa 34.4 mm 10.5°
2
1%
19:00
19°
1013.6 hPa 34.7 mm 12.6°
1
1%
 05:47     21:16    Daglengte: 15:29 Dinsdag 03 Aug
01:00
15°
1011.5 hPa 35.1 mm 13.8°
3
1%
07:00
15°
1008.3 hPa 35.6 mm 14.1°
4
1%
13:00
21°
1006.9 hPa 35.9 mm 13.1°
6
1%
19:00
18°
1004.7 hPa 38.3 mm 13.6°
6
1%
 05:49     21:14    Daglengte: 15:25 Woensdag 04 Aug
01:00
14°
1005.1 hPa 39.1 mm 11.7°
6
1%
07:00
12°
1005.7 hPa 39.4 mm 9.9°
5
0%
13:00
20°
1005.5 hPa 39.4 mm 10.8°
6
0%
19:00
18°
1005.7 hPa 40.4 mm 13.1°
5
1%
 05:51     21:12    Daglengte: 15:21 Donderdag 05 Aug
01:00
13°
1005.8 hPa 40.8 mm 11.8°
4
1%
07:00
13°
1004.1 hPa 40.8 mm 11.5°
3
1%
13:00
17°
1007.2 hPa 0.8 mm 12.7°
2
63%
19:00
17°
1007.2 hPa 1.7 mm 12.7°
2
67%
 05:52     21:10    Daglengte: 15:18 Vrijdag 06 Aug
01:00
13°
1008.1 hPa 0.5 mm 10.9°
3
57%
07:00
12°
1007.8 hPa 0.2 mm 11.0°
3
64%
13:00
17°
1008.5 hPa 0.6 mm 12.5°
3
71%
19:00
16°
1008.9 hPa 1.8 mm 12.6°
3
65%
 05:54     21:08    Daglengte: 15:14 Zaterdag 07 Aug
01:00
13°
1010.3 hPa 0.3 mm 11.0°
4
52%
07:00
12°
1010.4 hPa 0.1 mm 10.5°
4
53%
13:00
17°
1010.8 hPa 0.4 mm 11.6°
3
59%
19:00
16°
1010.2 hPa 1.5 mm 12.5°
2
67%
 05:56     21:06    Daglengte: 15:10 Zondag 08 Aug
01:00
13°
1010.7 hPa 0.6 mm 11.3°
4
70%
07:00
12°
1010.2 hPa 0.4 mm 10.8°
3
69%
13:00
16°
1010.5 hPa 0.7 mm 11.9°
3
70%
19:00
16°
1010.4 hPa 1.2 mm 12.3°
3
67%
 05:58     21:04    Daglengte: 15:06 Maandag 09 Aug
01:00
13°
1012.0 hPa 0.4 mm 10.7°
4
62%
07:00
12°
1012.7 hPa 0.3 mm 10.2°
4
65%
13:00
17°
1013.9 hPa 0.3 mm 11.7°
2
66%
19:00
16°
1013.8 hPa 1.3 mm 12.7°
2
69%
 05:59     21:02    Daglengte: 15:03 Dinsdag 10 Aug
01:00
13°
1014.4 hPa 0.8 mm 11.8°
3
69%
07:00
13°
1014.1 hPa 0.7 mm 11.2°
3
61%
13:00
17°
1014.5 hPa 0.5 mm 12.5°
2
67%
  CAPE Lifted Index Hail Supercell Tornado SRH 3km CL BTM PRES CL TOP PRES Swiss DWD icon SMHI TS
 05:35     21:30    Daglengte: 15:55 Vandaag
16:00 289 J/kg -1.6 K 0 % 0 % 0 % 0 m²/s² 0 0 0.65 3
17:00 241 J/kg -1.8 K 0 % 0 % 0 % 0 m²/s² 0 0 -0.24 3
18:00 220 J/kg -1.6 K 0 % 0 % 0 % 0 m²/s² 0 0 -0.58 3
19:00 259 J/kg -1.7 K 0 % 0 % 0 % 0 m²/s² 0 0 -0.86 3
20:00 361 J/kg -1.7 K 0 % 0 % 0 % 0 m²/s² 0 0 -0.59 3
21:00 422 J/kg -1.8 K 0 % 0 % 0 % 0 m²/s² 0 0 -0.57 3
22:00 451 J/kg -1.9 K 0 % 0 % 0 % 0 m²/s² 0 0 -0.76 3
23:00 360 J/kg -1.5 K 0 % 0 % 0 % 0 m²/s² 0 0 -0.36 3
 05:36     21:28    Daglengte: 15:52 Morgen
00:00 337 J/kg -1.4 K 0 % 0 % 0 % 0 m²/s² 0 0 -0.17 3
01:00 207 J/kg -0.6 K 0 % 0 % 0 % 0 m²/s² 0 0 0.57 61
02:00 110 J/kg -0.2 K 0 % 0 % 0 % 0 m²/s² 0 0 0.79 61
03:00 0 J/kg 0.6 K 0 % 0 % 0 % 0 m²/s² 0 0 1.74 61
04:00 0 J/kg 0.6 K 0 % 0 % 0 % 0 m²/s² 0 0 1.74 61
05:00 4 J/kg 0.5 K 0 % 0 % 0 % 0 m²/s² 0 0 1.46 80
06:00 2 J/kg 0.7 K 0 % 0 % 0 % 0 m²/s² 0 0 1.48 3
07:00 2 J/kg 1.2 K 0 % 0 % 0 % 0 m²/s² 0 0 1.89 3
08:00 1 J/kg 1.5 K 0 % 0 % 0 % 0 m²/s² 0 0 2.07 3
09:00 2 J/kg 1.6 K 0 % 0 % 0 % 0 m²/s² 0 0 2.08 3
10:00 2 J/kg 1.6 K 0 % 0 % 0 % 0 m²/s² 0 0 2.02 3
11:00 7 J/kg 1.5 K 0 % 0 % 0 % 0 m²/s² 0 0 1.98 3
12:00 36 J/kg 1.5 K 0 % 0 % 0 % 0 m²/s² 0 0 1.74 3
13:00 64 J/kg 0.7 K 0 % 0 % 0 % 0 m²/s² 0 0 1 3
14:00 101 J/kg 0.2 K 0 % 0 % 0 % 0 m²/s² 0 0 0.41 3
15:00 72 J/kg 0.5 K 0 % 0 % 0 % 0 m²/s² 0 0 0.59 3
16:00 60 J/kg 0.8 K 0 % 0 % 0 % 0 m²/s² 0 0 0.89 3
17:00 33 J/kg 1.6 K 0 % 0 % 0 % 0 m²/s² 0 0 1.72 80
18:00 70 J/kg 0.8 K 0 % 0 % 0 % 0 m²/s² 0 0 1.01 81
19:00 92 J/kg 0.1 K 0 % 0 % 0 % 0 m²/s² 0 0 0.94 80
20:00 170 J/kg -0.1 K 0 % 0 % 0 % 0 m²/s² 0 0 0.95 2
21:00 110 J/kg 1.0 K 0 % 0 % 0 % 0 m²/s² 0 0 2.59 3
22:00 61 J/kg 1.8 K 0 % 0 % 0 % 0 m²/s² 0 0 2.91 2
23:00 32 J/kg 2.5 K 0 % 0 % 0 % 0 m²/s² 0 0 2.95 2
 05:38     21:26    Daglengte: 15:48 Woensdag 28 Jul
00:00 2 J/kg 3.8 K 0 % 0 % 0 % 0 m²/s² 0 0 4.19 2
01:00 45 J/kg 2.2 K 0 % 0 % 0 % 0 m²/s² 0 0 3.07 2
02:00 161 J/kg 0.4 K 0 % 0 % 0 % 0 m²/s² 0 0 1.93 1
03:00 152 J/kg 0.1 K 0 % 0 % 0 % 0 m²/s² 0 0 2.5 2
04:00 7 J/kg 1.5 K 0 % 0 % 0 % 0 m²/s² 0 0 4.02 2
05:00 0 J/kg 1.0 K 0 % 0 % 0 % 0 m²/s² 0 0 3.52 2
06:00 25 J/kg 0.6 K 0 % 0 % 0 % 0 m²/s² 0 0 2.76 2
07:00 41 J/kg 0.4 K 0 % 0 % 0 % 0 m²/s² 0 0 1.03 2
08:00 156 J/kg -0.4 K 0 % 0 % 0 % 0 m²/s² 0 0 0.17 3
09:00 356 J/kg -1.5 K 0 % 0 % 0 % 0 m²/s² 0 0 -0.72 2
10:00 365 J/kg -1.5 K 0 % 0 % 0 % 0 m²/s² 0 0 -1.08 2
11:00 510 J/kg -2.6 K 0 % 0 % 0 % 0 m²/s² 0 0 -2.12 3
12:00 662 J/kg -3.3 K 0 % 0 % 0 % 0 m²/s² 0 0 -1.98 2
13:00 395 J/kg -2.0 K 0 % 0 % 0 % 0 m²/s² 0 0 0.07 80
14:00 384 J/kg -2.1 K 0 % 0 % 0 % 0 m²/s² 0 0 0.9 2
15:00 307 J/kg -2.1 K 0 % 0 % 0 % 0 m²/s² 0 0 0.51 2
16:00 203 J/kg -1.3 K 0 % 0 % 0 % 0 m²/s² 0 0 1.64 2
17:00 357 J/kg -2.0 K 0 % 0 % 0 % 0 m²/s² 0 0 0.49 2
18:00 308 J/kg -1.6 K 0 % 0 % 0 % 0 m²/s² 0 0 1.43 2
19:00 384 J/kg -1.9 K 0 % 0 % 0 % 0 m²/s² 0 0 0.89 1
20:00 425 J/kg -2.4 K 0 % 0 % 0 % 0 m²/s² 0 0 -0.63 1
21:00 128 J/kg -0.6 K 0 % 0 % 0 % 0 m²/s² 0 0 -0.3 1
22:00 132 J/kg -0.9 K 0 % 0 % 0 % 0 m²/s² 0 0 -0.81 0
23:00 96 J/kg -1.0 K 0 % 0 % 0 % 0 m²/s² 0 0 0.62 1
 05:39     21:25    Daglengte: 15:46 Donderdag 29 Jul
00:00 103 J/kg -0.4 K 0 % 0 % 0 % 0 m²/s² 0 0 1.04 0
01:00 0 J/kg 1.0 K 0 % 0 % 0 % 0 m²/s² 0 0 3.25 0
02:00 0 J/kg 0.7 K 0 % 0 % 0 % 0 m²/s² 0 0 3.7 0
03:00 0 J/kg 0.2 K 0 % 0 % 0 % 0 m²/s² 0 0 3.05 1
04:00 0 J/kg 0.9 K 0 % 0 % 0 % 0 m²/s² 0 0 3.03 1
05:00 0 J/kg 2.1 K 0 % 0 % 0 % 0 m²/s² 0 0 4.17 1
06:00 0 J/kg 3.9 K 0 % 0 % 0 % 0 m²/s² 0 0 5.79 2
07:00 0 J/kg 4.4 K 0 % 0 % 0 % 0 m²/s² 0 0 5.12 1
08:00 0 J/kg 4.0 K 0 % 0 % 0 % 0 m²/s² 0 0 4.6 1
09:00 0 J/kg 3.9 K 0 % 0 % 0 % 0 m²/s² 0 0 4.77 2
10:00 3 J/kg 3.6 K 0 % 0 % 0 % 0 m²/s² 0 0 4.08 1
11:00 42 J/kg 2.2 K 0 % 0 % 0 % 0 m²/s² 0 0 2.98 1
12:00 52 J/kg 1.3 K 0 % 0 % 0 % 0 m²/s² 0 0 2.23 1
13:00 27 J/kg 2.1 K 0 % 0 % 0 % 0 m²/s² 0 0 3.33 1
Temp Baro Wind Neerslag
  EWN Forecast EWN WRFDA DWD ICON FMI HIRLAM MET Norway GFS
 05:35     21:30    Daglengte: 15:55 Vandaag
16:00 21.4° 1008.6 hPa 3.5 m/s 0.0 mm 22.1° 1008.0 hPa 0.5 m/s 0.0 mm 21.4° 1009.3 hPa 3.1 m/s -2.0 mm 21.4° 1008.4 hPa 3.7 m/s 0.0 mm 20.3° 1008.9 hPa 0.9 m/s
19:00 20.0° 1007.8 hPa 2.7 m/s 0.0 mm 21.5° 1006.9 hPa 2.6 m/s 0.0 mm 19.6° 1008.0 hPa 0.6 m/s 0.0 mm 21.6° 1007.9 hPa 2.8 m/s 0.0 mm 19.5° 1008.0 hPa 0.8 m/s
22:00 18.8° 1008.3 hPa 4.3 m/s 0.0 mm 19.0° 1007.2 hPa 4.9 m/s 0.0 mm 18.8° 1008.5 hPa 2.4 m/s 0.0 mm 19.1° 1008.4 hPa 4.5 m/s 0.0 mm 16.2° 1008.0 hPa 0.4 m/s
 05:36     21:28    Daglengte: 15:52 Morgen
01:00 17.3° 1008.3 hPa 3.7 m/s 0.3 mm 16.5° 1007.2 hPa 3.4 m/s 0.0 mm 16.7° 1008.6 hPa 2.5 m/s 0.3 mm 17.8° 1008.1 hPa 4.1 m/s 0.0 mm 15.2° 1008.1 hPa 2.3 m/s
04:00 15.8° 1007.7 hPa 2.5 m/s 2.1 mm 14.0° 1006.9 hPa 1.6 m/s 0.0 mm 15.8° 1007.8 hPa 1.7 m/s 0.6 mm 17.2° 1007.5 hPa 4.5 m/s 0.0 mm 14.3° 1007.3 hPa 2.0 m/s
07:00 15.7° 1007.6 hPa 2.0 m/s 1.0 mm 14.5° 1007.6 hPa 2.5 m/s 0.1 mm 15.7° 1007.8 hPa 1.9 m/s 0.1 mm 16.7° 1007.6 hPa 2.5 m/s 0.0 mm 14.8° 1007.2 hPa 1.5 m/s
10:00 16.3° 1008.0 hPa 3.5 m/s 0.0 mm 14.8° 1007.7 hPa 1.7 m/s 0.5 mm 16.8° 1007.7 hPa 3.1 m/s 0.0 mm 16.6° 1008.2 hPa 5.6 m/s 0.0 mm 16.3° 1007.3 hPa 1.6 m/s
13:00 17.7° 1007.5 hPa 3.2 m/s 0.0 mm 17.6° 1007.4 hPa 1.6 m/s 0.8 mm 20.6° 1006.9 hPa 1.9 m/s 0.0 mm 17.4° 1008.3 hPa 7.1 m/s 0.0 mm 17.1° 1007.1 hPa 1.5 m/s
16:00 17.5° 1006.9 hPa 3.9 m/s 0.8 mm 16.8° 1007.2 hPa 5.4 m/s 2.1 mm 19.3° 1005.9 hPa 1.6 m/s 0.3 mm 16.4° 1008.2 hPa 8.8 m/s 0.0 mm 17.1° 1006.7 hPa 2.1 m/s
19:00 16.5° 1006.9 hPa 5.5 m/s 2.6 mm 16.8° 1006.7 hPa 2.6 m/s 3.9 mm 17.3° 1005.5 hPa 4.8 m/s 3.6 mm 16.4° 1009.0 hPa 5.9 m/s 0.0 mm 13.7° 1007.0 hPa 4.1 m/s
22:00 15.4° 1007.4 hPa 4.7 m/s 0.4 mm 16.2° 1006.9 hPa 1.1 m/s 4.5 mm 15.4° 1006.7 hPa 3.0 m/s 0.1 mm 15.7° 1010.4 hPa 5.2 m/s 0.0 mm 12.7° 1007.6 hPa 2.9 m/s
 05:38     21:26    Daglengte: 15:48 Woensdag 28 Jul
01:00 14.2° 1007.1 hPa 4.6 m/s 0.0 mm 14.6° 1005.6 hPa 3.5 m/s 4.8 mm 14.0° 1006.1 hPa 2.3 m/s 0.0 mm 15.1° 1010.5 hPa 4.9 m/s 0.0 mm 11.7° 1006.5 hPa 2.8 m/s
04:00 13.3° 1006.0 hPa 3.8 m/s 0.0 mm 12.7° 1004.0 hPa 4.2 m/s 5.5 mm 12.9° 1005.6 hPa 3.0 m/s 0.0 mm 15.2° 1010.2 hPa 3.7 m/s 0.0 mm 11.2° 1005.1 hPa 3.5 m/s
07:00 13.5° 1005.6 hPa 3.3 m/s 0.0 mm 13.3° 1002.6 hPa 3.4 m/s 5.5 mm 13.3° 1005.2 hPa 3.1 m/s 0.0 mm 14.6° 1010.3 hPa 3.1 m/s 0.0 mm 12.2° 1003.4 hPa 3.6 m/s
10:00 16.0° 1003.8 hPa 4.2 m/s 0.0 mm 16.1° 1001.4 hPa 4.3 m/s 5.5 mm 16.1° 1005.2 hPa 4.3 m/s 0.0 mm 13.8° 1002.4 hPa 5.4 m/s
13:00 16.7° 1003.0 hPa 4.8 m/s 2.6 mm 17.1° 1001.0 hPa 5.6 m/s 7.0 mm 16.9° 1004.9 hPa 5.1 m/s 0.5 mm 17.1° 1002.0 hPa 6.2 m/s
16:00 17.0° 1002.9 hPa 6.3 m/s 4.4 mm 17.3° 1000.1 hPa 6.3 m/s 9.3 mm 18.3° 1005.0 hPa 6.1 m/s 0.2 mm 14.2° 1002.5 hPa 6.6 m/s
19:00 16.0° 1003.2 hPa 6.0 m/s 0.0 mm 16.2° 1000.2 hPa 6.5 m/s 9.8 mm 17.4° 1004.9 hPa 4.7 m/s 0.0 mm 12.9° 1002.8 hPa 5.0 m/s
22:00 13.8° 1004.2 hPa 5.8 m/s 0.0 mm 13.5° 1001.5 hPa 6.0 m/s 18.4 mm 15.1° 1005.9 hPa 3.8 m/s 0.0 mm 12.5° 1004.3 hPa 5.6 m/s
 05:39     21:25    Daglengte: 15:46 Donderdag 29 Jul
01:00 12.6° 1004.7 hPa 6.7 m/s 0.0 mm 12.6° 1002.9 hPa 6.6 m/s 29.9 mm 12.4° 1006.4 hPa 4.6 m/s 0.0 mm 12.8° 1004.9 hPa 7.2 m/s
04:00 12.3° 1004.8 hPa 7.6 m/s 0.0 mm 12.8° 1003.6 hPa 7.6 m/s 30.2 mm 11.1° 1006.3 hPa 4.5 m/s 0.0 mm 12.8° 1004.9 hPa 8.8 m/s
07:00 12.5° 1005.9 hPa 7.3 m/s 0.0 mm 13.0° 1005.2 hPa 7.5 m/s 30.3 mm 11.6° 1006.5 hPa 4.5 m/s 0.0 mm 12.9° 1005.7 hPa 8.3 m/s
10:00 15.8° 1006.8 hPa 6.0 m/s 0.0 mm 14.7° 1007.1 hPa 7.6 m/s 30.3 mm 16.1° 1006.7 hPa 5.6 m/s 0.0 mm 13.2° 1007.3 hPa 7.1 m/s
13:00 19.6° 1006.7 hPa 6.0 m/s 0.0 mm 18.7° 1008.1 hPa 7.4 m/s 30.3 mm 19.8° 1006.4 hPa 5.6 m/s 0.0 mm 13.2° 1008.4 hPa 5.4 m/s
16:00 13.3° 1009.0 hPa 5.0 m/s 14.7 mm 13.3° 1009.0 hPa 5.0 m/s 14.7 mm
19:00 13.1° 1009.1 hPa 3.6 m/s 15.7 mm 13.1° 1009.1 hPa 3.6 m/s 15.7 mm
22:00 12.6° 1009.4 hPa 2.3 m/s 16.0 mm 12.6° 1009.4 hPa 2.3 m/s 16.0 mm
 05:41     21:23    Daglengte: 15:42 Vrijdag 30 Jul
01:00 11.6° 1009.4 hPa 2.2 m/s 16.0 mm 11.5° 1009.4 hPa 2.2 m/s 16.0 mm
04:00 10.7° 1008.2 hPa 1.6 m/s 16.0 mm 10.7° 1008.2 hPa 1.6 m/s 16.0 mm
07:00 11.5° 1007.8 hPa 1.6 m/s 16.0 mm 11.5° 1007.8 hPa 1.6 m/s 16.0 mm
10:00 13.6° 1007.2 hPa 2.5 m/s 16.2 mm 13.6° 1007.2 hPa 2.5 m/s 16.2 mm
13:00 14.8° 1006.4 hPa 3.7 m/s 16.8 mm 14.8° 1006.4 hPa 3.7 m/s 16.8 mm
16:00 15.4° 1006.5 hPa 2.5 m/s 17.0 mm 15.4° 1006.5 hPa 2.5 m/s 17.0 mm
19:00 16.7° 1006.5 hPa 1.8 m/s 17.0 mm 16.7° 1006.5 hPa 1.8 m/s 17.0 mm
22:00 14.7° 1007.4 hPa 2.3 m/s 17.0 mm 14.7° 1007.4 hPa 2.3 m/s 17.0 mm
 05:43     21:21    Daglengte: 15:38 Zaterdag 31 Jul
01:00 11.9° 1008.2 hPa 3.5 m/s 17.0 mm 11.9° 1008.2 hPa 3.5 m/s 17.0 mm
04:00 11.4° 1008.3 hPa 4.0 m/s 17.0 mm 11.4° 1008.3 hPa 4.0 m/s 17.0 mm
07:00 13.0° 1008.9 hPa 4.9 m/s 17.1 mm 13.0° 1008.9 hPa 4.9 m/s 17.1 mm
10:00 13.9° 1009.5 hPa 5.1 m/s 17.1 mm 13.9° 1009.5 hPa 5.1 m/s 17.1 mm
13:00 17.8° 1009.6 hPa 6.9 m/s 17.1 mm 17.8° 1009.6 hPa 6.9 m/s 17.1 mm
16:00 16.8° 1010.3 hPa 5.6 m/s 17.1 mm 16.7° 1010.3 hPa 5.6 m/s 17.1 mm
19:00 16.5° 1010.6 hPa 4.5 m/s 17.2 mm 16.5° 1010.6 hPa 4.5 m/s 17.2 mm
22:00 11.7° 1012.0 hPa 3.3 m/s 17.2 mm 11.7° 1012.0 hPa 3.3 m/s 17.2 mm
 05:44     21:19    Daglengte: 15:35 Zondag 01 Aug
01:00 10.9° 1012.7 hPa 3.6 m/s 17.2 mm 10.9° 1012.7 hPa 3.6 m/s 17.2 mm
04:00 12.6° 1012.5 hPa 4.8 m/s 17.2 mm 12.6° 1012.5 hPa 4.8 m/s 17.2 mm
07:00 12.8° 1013.0 hPa 5.2 m/s 17.2 mm 12.8° 1013.0 hPa 5.2 m/s 17.2 mm
10:00 13.7° 1013.8 hPa 5.4 m/s 17.2 mm 13.7° 1013.8 hPa 5.4 m/s 17.2 mm
13:00 15.6° 1014.5 hPa 4.7 m/s 17.2 mm 15.6° 1014.5 hPa 4.7 m/s 17.2 mm
16:00 16.6° 1014.9 hPa 4.4 m/s 17.2 mm 16.6° 1014.9 hPa 4.4 m/s 17.2 mm
19:00 17.2° 1014.9 hPa 2.1 m/s 17.2 mm 17.2° 1014.9 hPa 2.1 m/s 17.2 mm
22:00 14.6° 1015.5 hPa 1.5 m/s 17.2 mm 14.6° 1015.5 hPa 1.5 m/s 17.2 mm
 05:46     21:18    Daglengte: 15:32 Maandag 02 Aug
01:00 10.2° 1016.4 hPa 2.1 m/s 17.2 mm 10.2° 1016.4 hPa 2.1 m/s 17.2 mm
04:00 8.7° 1016.6 hPa 2.6 m/s 17.2 mm 8.7° 1016.6 hPa 2.6 m/s 17.2 mm
07:00 9.6° 1016.7 hPa 2.5 m/s 17.2 mm 9.6° 1016.7 hPa 2.5 m/s 17.2 mm
10:00 15.5° 1016.7 hPa 2.6 m/s 17.2 mm 15.5° 1016.7 hPa 2.6 m/s 17.2 mm
13:00 19.4° 1015.7 hPa 1.9 m/s 17.2 mm 19.4° 1015.7 hPa 1.9 m/s 17.2 mm
19:00 18.5° 1013.6 hPa 1.0 m/s 17.4 mm 18.5° 1013.6 hPa 1.0 m/s 17.4 mm
 05:47     21:16    Daglengte: 15:29 Dinsdag 03 Aug
01:00 15.3° 1011.5 hPa 2.5 m/s 17.6 mm 15.3° 1011.5 hPa 2.5 m/s 17.6 mm
07:00 15.5° 1008.3 hPa 4.0 m/s 17.8 mm 15.5° 1008.3 hPa 4.0 m/s 17.8 mm
13:00 20.6° 1006.9 hPa 6.0 m/s 18.0 mm 20.6° 1006.9 hPa 6.0 m/s 18.0 mm
19:00 18.4° 1004.7 hPa 5.8 m/s 19.2 mm 18.4° 1004.7 hPa 5.8 m/s 19.2 mm
 05:49     21:14    Daglengte: 15:25 Woensdag 04 Aug
01:00 13.5° 1005.1 hPa 5.7 m/s 19.7 mm 13.5° 1005.1 hPa 5.7 m/s 19.7 mm
07:00 11.9° 1005.7 hPa 5.4 m/s 19.7 mm 11.9° 1005.7 hPa 5.4 m/s 19.7 mm
13:00 20.1° 1005.5 hPa 5.8 m/s 19.7 mm 20.1° 1005.5 hPa 5.8 m/s 19.7 mm
19:00 18.0° 1005.7 hPa 5.2 m/s 20.4 mm 18.0° 1005.7 hPa 5.2 m/s 20.4 mm
 05:51     21:12    Daglengte: 15:21 Donderdag 05 Aug
01:00 13.3° 1005.8 hPa 4.5 m/s 20.4 mm 13.3° 1005.8 hPa 4.5 m/s 20.4 mm
07:00 12.8° 1004.1 hPa 3.3 m/s 20.4 mm 12.8° 1004.1 hPa 3.3 m/s 20.4 mm
13:00 16.9° 1007.2 hPa 1.9 m/s 0.8 mm
19:00 16.5° 1007.2 hPa 2.2 m/s 1.7 mm
 05:52     21:10    Daglengte: 15:18 Vrijdag 06 Aug
01:00 12.9° 1008.1 hPa 2.9 m/s 0.5 mm
07:00 12.5° 1007.8 hPa 3.0 m/s 0.2 mm
13:00 16.7° 1008.5 hPa 2.6 m/s 0.6 mm
19:00 16.4° 1008.9 hPa 3.0 m/s 1.8 mm
 05:54     21:08    Daglengte: 15:14 Zaterdag 07 Aug
01:00 12.8° 1010.3 hPa 4.1 m/s 0.3 mm
07:00 12.0° 1010.4 hPa 4.2 m/s 0.1 mm
13:00 16.8° 1010.8 hPa 2.8 m/s 0.4 mm
19:00 16.3° 1010.2 hPa 2.4 m/s 1.5 mm
 05:56     21:06    Daglengte: 15:10 Zondag 08 Aug
01:00 13.1° 1010.7 hPa 3.6 m/s 0.6 mm
07:00 12.4° 1010.2 hPa 3.4 m/s 0.4 mm
13:00 16.3° 1010.5 hPa 2.8 m/s 0.7 mm
19:00 16.2° 1010.4 hPa 3.3 m/s 1.2 mm
 05:58     21:04    Daglengte: 15:06 Maandag 09 Aug
01:00 12.7° 1012.0 hPa 4.0 m/s 0.4 mm
07:00 12.0° 1012.7 hPa 3.9 m/s 0.3 mm
13:00 16.9° 1013.9 hPa 2.3 m/s 0.3 mm
19:00 16.5° 1013.8 hPa 2.3 m/s 1.3 mm
 05:59     21:02    Daglengte: 15:03 Dinsdag 10 Aug
01:00 13.4° 1014.4 hPa 2.6 m/s 0.8 mm
07:00 12.5° 1014.1 hPa 2.9 m/s 0.7 mm
13:00 16.9° 1014.5 hPa 1.9 m/s 0.5 mm
FMI Hirlam - 7.5 km EWN WRFDA - 12 km DWD ICON - 7 km GFS - 25 km Basiskaart






























































Updatetijd (Europe/Amsterdam) Resolutie Lengte Stap
FMI Hirlam 14:00, 20:00, 02:00, 08:00 7.5 km 49h 1h
EWN WRFDA 16:30, 22:30, 04:30, 10:30 12 km 73h 1h
DWD ICON 11:45, 17:45, 23:45, 05:45 7 km 75h 1h
GFS 14:15, 20:15, 02:15, 08:15 25 km 237h 3h
30+ mm
25-30 mm
20-25 mm
15-20 mm
10-15 mm
6-10 mm
4-6 mm
2-4 mm
1-2 mm
0.5-1 mm
0.2-0.5 mm
0.1-0.2 mm
30+ mm
25-30 mm
20-25 mm
15-20 mm
10-15 mm
6-10 mm
4-6 mm
2-4 mm
1-2 mm
0.5-1 mm
0.2-0.5 mm
0.1-0.2 mm
Sneeuwval
Natte sneeuw
Hagel
Vorst
30+ mm
25-30 mm
20-25 mm
15-20 mm
10-15 mm
6-10 mm
4-6 mm
2-4 mm
1-2 mm
0.5-1 mm
0.2-0.5 mm
0.1-0.2 mm
Sneeuwval
Natte sneeuw
Hagel
Vorst
Onweer
50 mm
40 mm
30 mm
26 mm
22 mm
18 mm
14 mm
10 mm
9 mm
8 mm
7 mm
6 mm
5 mm
4.5 mm
4 mm
3.5 mm
3 mm
2.5 mm
2 mm
1.5 mm
1 mm
0.8 mm
0.6 mm
0.4 mm
0.2 mm
0.05 mm
35°
30°
25°
20°
15°
10°
-5°
-10°
-15°
-20°
-25°
-30°
-35°
33> m/s
29 m/s
25 m/s
21 m/s